Terug naar catalogus

FO-29

JAS 2

ActiefAmateurradioPO
NORAD 24278·PAYLOAD·🇯🇵 Japan

Gelanceerd Aug 17, 1996 vanaf Tanegashima Space Center

Loading…

Volgende Passages (komende 24 uur)

TLE

VersSource: Space-Track

Epoch: Sep 14, 2026, 13:09 UTC

1 24278U 96046B   26257.54820134 -.00000014  00000-0  22835-4 0  9997
2 24278  98.5169  94.1692 0349149 224.4162 132.8488 13.53277998485257

Volg FO-29 in realtime met AllMySat

Download on the App Store